FW6330 Weather Reports


Display with metric or nautical units.
time (UTC)temp
F
wind
direction
speed
MPH
gust
MPH
rain 1hr
in
rain 24hr
in
rain mn
in
humidity
%
barometer
mb
20260505140113 32 122 0.0 0.0 0.00 0.00 0.00 95 1015.2
20260505124553 32 244 0.0 0.0 0.00 0.00 0.00 95 1015.1
20260505123053 32 130 0.0 0.0 0.00 0.00 0.00 95 1014.9
20260505121549 32 229 0.0 0.0 0.00 0.00 0.00 95 1014.8
20260505120053 32 112 0.0 0.0 0.00 0.00 0.00 95 1014.9
20260505114557 32 129 0.0 0.0 0.00 0.00 0.00 95 1014.8
20260505113059 32 174 0.0 0.0 0.00 0.00 0.00 95 1014.9
20260505111549 32 150 0.0 0.0 0.00 0.00 0.00 95 1014.7
20260505101541 32 173 0.0 0.0 0.00 0.00 0.00 95 1014.6
20260505100024 32 161 0.0 0.0 0.00 0.00 0.00 95 1014.7
20260505094533 32 100 0.0 0.0 0.00 0.00 0.00 95 1014.9
20260505093021 32 168 0.0 0.0 0.00 0.00 0.00 95 1015.0
20260505091520 32 47 0.0 0.0 0.00 0.00 0.00 95 1014.9
20260505090021 32 269 0.0 0.0 0.00 0.00 0.00 95 1015.1
20260505084512 32 186 0.0 0.0 0.00 0.00 0.00 95 1015.0
20260505083015 32 136 0.0 0.0 0.00 0.00 0.00 94 1015.0
20260505081502 32 34 0.0 0.0 0.00 0.00 0.00 94 1015.4
20260505074557 32 330 0.0 0.0 0.00 0.00 0.00 94 1015.1
20260505073104 32 15 0.0 0.0 0.00 0.00 0.00 94 1015.2
20260505071558 32 186 0.0 0.0 0.00 0.00 0.00 94 1015.1
20260505070044 32 105 0.0 0.0 0.00 0.00 0.00 94 1014.7
20260505064540 32 46 0.0 0.0 0.00 0.00 0.00 94 1014.8
20260505063034 32 219 0.0 0.0 0.00 0.00 0.00 94 1014.9
20260505061530 32 2 0.0 0.0 0.00 0.00 0.00 94 1015.0
20260505060041 32 297 0.0 0.0 0.00 0.00 0.00 94 1015.1
20260505054521 33 142 0.0 0.0 0.00 0.00 0.00 94 1015.4
20260505053016 33 328 0.0 0.0 0.00 0.00 0.00 94 1015.1
20260505051518 33 286 0.0 0.0 0.00 0.00 0.00 94 1014.9
20260505041602 35 194 0.0 0.0 0.00 0.00 0.00 94 1014.7
20260505040050 35 145 0.0 0.0 0.00 0.00 0.00 94 1014.7
20260505034552 35 181 0.0 0.0 0.00 0.00 0.00 94 1014.2
20260505033049 35 262 0.0 0.0 0.00 0.00 0.00 94 1014.1
20260505031553 35 327 0.0 0.0 0.00 0.00 0.00 94 1014.1
20260505030047 35 220 0.0 0.0 0.00 0.00 0.00 93 1014.1
20260505024549 35 254 0.0 0.0 0.00 0.00 0.00 93 1013.9
20260505023051 35 240 0.0 0.0 0.00 0.00 0.00 93 1014.0
20260505021545 35 160 0.0 0.0 0.00 0.00 0.00 93 1013.8
20260505020144 35 288 0.0 1.0 0.00 0.00 0.00 93 1014.1
20260505014544 36 65 0.0 1.0 0.00 0.00 0.00 93 1014.1
20260505013059 36 225 0.0 2.0 0.00 0.00 0.00 92 1014.3
20260505011540 36 13 0.0 1.0 0.00 0.00 0.00 93 1014.1
20260505010036 37 30 0.0 0.0 0.00 0.00 0.00 93 1013.9
20260505004532 37 148 0.0 0.0 0.00 0.00 0.00 93 1014.1
20260505003030 37 196 0.0 0.0 0.00 0.00 0.00 92 1014.1
20260505001523 37 131 0.0 0.0 0.00 0.00 0.00 92 1014.0
20260505000024 37 136 0.0 0.0 0.00 0.00 0.00 92 1013.9
20260504234513 38 43 0.0 1.0 0.00 0.00 0.00 92 1014.0
20260504233011 38 165 0.0 1.0 0.00 0.00 0.00 92 1014.1
20260504231505 37 44 0.0 1.0 0.00 0.00 0.00 93 1014.2
20260504230106 37 174 0.0 1.0 0.00 0.00 0.00 93 1014.3
20260504224557 36 135 0.0 0.0 0.00 0.00 0.00 94 1014.0
20260504223059 34 355 0.0 0.0 0.00 0.00 0.00 94 1014.0
20260504221544 33 231 0.0 0.0 0.00 0.00 0.00 93 1014.1
20260504220044 33 78 0.0 0.0 0.00 0.00 0.00 93 1014.2
20260504214542 33 131 0.0 0.0 0.00 0.00 0.00 93 1014.5
20260504213034 33 179 0.0 0.0 0.00 0.00 0.00 93 1014.5
20260504211534 33 300 0.0 0.0 0.00 0.00 0.00 92 1014.4
20260504210026 33 70 0.0 0.0 0.00 0.00 0.00 91 1013.9
20260504204527 35 179 0.0 0.0 0.00 0.00 0.00 90 1014.0
20260504203022 36 325 0.0 0.0 0.00 0.00 0.00 91 1014.0
20260504201515 37 29 0.0 0.0 0.00 0.00 0.00 91 1013.6
20260504200011 38 227 0.0 0.0 0.00 0.00 0.00 90 1013.1
20260504194507 38 177 0.0 2.0 0.00 0.00 0.00 90 1012.6
20260504193001 39 334 0.0 1.0 0.00 0.00 0.00 90 1012.7
20260504191604 39 108 0.0 0.0 0.00 0.00 0.00 91 1012.6
20260504190113 39 123 0.0 1.0 0.00 0.00 0.00 90 1012.4
20260504184603 39 282 0.0 1.0 0.00 0.00 0.00 90 1012.3
20260504183045 40 176 0.0 2.0 0.00 0.00 0.00 90 1012.4
20260504181540 40 260 0.0 1.0 0.00 0.00 0.00 91 1012.4
20260504180035 39 193 0.0 1.0 0.00 0.00 0.00 91 1012.2
20260504174536 40 263 0.0 1.0 0.00 0.00 0.00 89 1012.4
20260504173028 40 283 0.0 1.0 0.00 0.00 0.00 89 1012.2
20260504171522 39 162 0.0 1.0 0.00 0.00 0.00 91 1011.9